Location: Marcé
(47.5801°N, 0.3280°W)
Time: 10:27:17
(UTC+01:00)

deb Explorer IX - Pass Details

Date: 05 December 2021
Orbit: 544 x 1082 km, 38.8° (Epoch: 17 January)

Event Time Altitude Azimuth Distance (km) Brightness Sun altitude
Rises 14:14:27 0° 259° (W) 2,814 ? 17.6°
Reaches altitude 10° 14:17:17 10° 241° (WSW) 1,857 ? 17.4°
Maximum altitude 14:20:18 19° 196° (SSW) 1,331 ? 17.2°
Drops below altitude 10° 14:23:14 10° 149° (SSE) 1,800 ? 17.0°
Sets 14:25:56 0° 131° (SE) 2,698 ? 16.9°
